Regional Weather Roundup
Issued by NWS Glasgow, MT

Home | Current Version | Previous Version | Text Only | Print | Product List | Glossary On
Versions: 1 2 3 4 5 6 7 8 9 10 11 12 13 14 15 16 17 18 19 20 21 22 23 24 25 26 27 28 29 30 31 32 33 34 35 36 37 38 39 40 41 42 43 44 45 46 47 48 49 50
000
ASUS45 KGGW 071815
RWRGGW
HOURLY REGIONAL WEATHER ROUNDUP FOR NORTHEAST MONTANA
NATIONAL WEATHER SERVICE GLASGOW MONTANA
1100 AM MST WED DEC 07 2016

NOTE: "FAIR" INDICATES FEW OR NO CLOUDS BELOW 12,000 FEET WITH NO
SIGNIFICANT WEATHER AND/OR OBSTRUCTIONS TO VISISBILITY.

NORTHEAST MONTANA


CITY           SKY/WX    TMP DP  RH WIND       PRES   REMARKS
GLASGOW        CLOUDY     1  -8  66 NW24G33   30.49R WCI -22
6HR MIN TEMP:  -2; 6HR MAX TEMP:   1;

PLENTYWOOD       N/A     -1  -6  79 NW20        N/A  WCI -23
WOLF POINT     SUNNY      3  -8  60 W22       30.51R WCI -19
JORDAN           N/A      6  -4  63 NW21G29   30.48S WCI -14
SIDNEY         PTSUNNY    0  -8  69 NW33G39   30.42S WCI -27
GLENDIVE       MOSUNNY    3  -5  69 NW21G29   30.43S WCI -18
SCOBEY           N/A     -2 -14  56 NW18      30.37  WCI -24

FORT PECK REPORTS


CITY           SKY/WX    TMP DP  RH WIND       PRES   REMARKS
FORT PECK        N/A      2  -7  66 W24G32      N/A  WCI -21
THE PINES        N/A      4  -9  55 W3G13       N/A

SOUTHEAST MONTANA


CITY           SKY/WX    TMP DP  RH WIND       PRES   REMARKS
BILLINGS       MOSUNNY    6  -5  60 S3        30.42R
MILES CITY     CLOUDY     6  -6  57 NW16      30.49R WCI -12
BAKER          MIX PCPN   3  -4  72 NW24G35   30.37S WCI -20
LIVINGSTON     MOSUNNY    5  -5  63 NW13      30.31S WCI -12

CENTRAL MONTANA


CITY           SKY/WX    TMP DP  RH WIND       PRES   REMARKS
HAVRE          PTSUNNY    3  -6  66 W10       30.57R WCI -12
LEWISTOWN      CLOUDY    -3  -9  75 W12       30.41R WCI -21
GREAT FALLS    SUNNY      1  -8  66 W3        30.48R
CUT BANK       SUNNY     -4 -10  75 NW12      30.46R WCI -22
HELENA         CLOUDY     4  -6  63 W5        30.45R
BUTTE          CLOUDY     2  -4  76 CALM      30.25R
BOZEMAN        CLOUDY     5  -2  72 CALM      30.37R

WESTERN MONTANA


CITY           SKY/WX    TMP DP  RH WIND       PRES   REMARKS
MISSOULA       CLOUDY    13   0  56 E14       30.43R WCI  -2
KALISPELL      NOT AVBL

NORTH DAKOTA


CITY           SKY/WX    TMP DP  RH WIND       PRES   REMARKS
WILLISTON      CLOUDY     0  -9  65 NW15      30.42S WCI -19
DICKINSON      MIX PCPN  -1  -8  72 NW32G40   30.28R VSB 1   WCI -28
MINOT          LGT SNOW   6   0  76 W36G45    30.21R VSB 3/4 WCI -19
BISMARCK       CLOUDY     5  -1  76 NW23G32   30.28R WCI -17

SOUTHERN SASKATCHEWAN


CITY           SKY/WX    TMP DP  RH WIND       PRES   REMARKS
REGINA         PTSUNNY    1  -4  78 NW23G30   30.39R BLWGSNOWWCI -21
MOOSE JAW      LGT SNOW   1  -6  71 NW23G29   30.43F DRFTSNOWWCI -21
ESTEVAN        SNOW       1  -2  85 NW31G38   30.31S VSB 1/2 WCI -24
SWIFT CURRENT  CLOUDY    -6  -9  84 NW21      30.42R WCI -30




USA.gov is the U.S. government's official web portal to all federal, state and local government web resources and services.